Regional Weather Roundup
Issued by NWS

Home | Current Version | Previous Version | Text Only | Print | Product List | Glossary Off
Versions: 1 2 3 4 5 6 7 8 9 10 11 12 13 14 15 16 17 18 19 20 21 22 23 24 25 26 27 28 29 30 31 32 33 34 35 36 37 38 39 40 41 42 43 44 45 46 47 48 49 50

000
ASUS43 KMKX 191321
RWRWI

WISCONSIN REGIONAL WEATHER ROUNDUP
NATIONAL WEATHER SERVICE MILWAUKEE/SULLIVAN WI
800 AM CDT SUN APR 19 2015

NOTE: "FAIR" INDICATES FEW OR NO CLOUDS BELOW 12,000 FEET WITH NO
SIGNIFICANT WEATHER AND/OR OBSTRUCTIONS TO VISIBILITY.

WIZ001-002-006>008-014>016-023>028-191400-
NORTHWEST WISCONSIN

CITY           SKY/WX    TMP DP  RH WIND       PRES   REMARKS
SUPERIOR ARPT  RAIN      37  36  97 E14G21    29.79F WCI  28
ASHLAND        LGT RAIN  41  40  96 E5        29.81F FOG
HAYWARD        CLOUDY    45  36  70 VRB6      29.78F
SIREN          RAIN      43  39  85 SE7       29.75F
CUMBERLAND     CLOUDY    43  34  70 SE10      29.77F
RICE LAKE      CLOUDY    46  35  66 SE10      29.79F
CHETEK         DRIZZLE   46  35  63 SE8       29.78F
LADYSMITH      CLOUDY    48  32  55 SE10      29.83F
EAU CLAIRE     CLOUDY    48  33  56 SE8       29.77F
MENOMONIE      LGT RAIN  46  36  67 E5        29.78S
NEW RICHMOND   CLOUDY    44  38  78 SE7       29.75F
OSCEOLA        RAIN      44  43  95 SE6       29.78S
$$

WIZ003>005-009-010-017-018-191400-
NORTH CENTRAL WISCONSIN

CITY           SKY/WX    TMP DP  RH WIND       PRES   REMARKS
MANITOWISH WTR CLOUDY    41  30  66 SE6       29.83F
ARBOR VITAE    CLOUDY    43  30  61 SE14      29.84F HAZE
WOODRUFF       CLOUDY    43  30  61 SE14      29.84F HAZE
RHINELANDER    CLOUDY    45  25  45 E15       29.87F
EAGLE RIVER    CLOUDY    40  29  64 SE6       29.88F
LAND O LAKES   CLOUDY    44  24  46 SE8G16    29.89F
PHILLIPS       CLOUDY    45  29  54 SE13      29.81F
TOMAHAWK       CLOUDY    44  26  48 SE5       29.86F
MEDFORD        PTSUNNY   45  29  52 SE12G21   29.82F
MERRILL        CLOUDY    46  27  48 SE10G18   29.87F
$$

WIZ029-030-035-036-043>047-191400-
CENTRAL WISCONSIN

CITY           SKY/WX    TMP DP  RH WIND       PRES   REMARKS
WAUSAU         PTSUNNY   47  27  45 SE14      29.86F
MOSINEE        PTSUNNY   46  27  46 E14G20    29.87F
MARSHFIELD     MOSUNNY   49  29  46 SE16      29.84F
STEVENS POINT  CLOUDY    45  28  52 E14       29.87F
WAUPACA        PTSUNNY   51  31  46 E14       29.90F
WAUTOMA        MOSUNNY   49  29  46 E7        29.88F
WISC RAPIDS    MOSUNNY   50  25  37 SE9       29.86F
CAMP DOUGLAS   CLOUDY    50  32  50 E10       29.82F
$$

WIZ011>013-019>022-031-037>040-048>050-191400-
NORTHEAST WISCONSIN

CITY           SKY/WX    TMP DP  RH WIND       PRES   REMARKS
ANTIGO         LGT RAIN  42  28  58 SE17G25   29.89F
SHAWANO        CLOUDY    47  32  55 E7        29.93F
OCONTO         CLOUDY    45  32  60 E8        29.95F
STURGEON BAY   PTSUNNY   45  28  53 SE8       29.96F
GREEN BAY      CLOUDY    49  30  48 SE15      29.93F
MANITOWOC      CLOUDY    44  34  67 SE6       29.94F
APPLETON       PTSUNNY   48  28  46 SE16G25   29.90F
CLINTONVILLE   CLOUDY    46  30  53 E9        29.91F
OSHKOSH        MOSUNNY   50  30  46 SE20G26   29.88F
$$

WIZ032>034-041-042-053>061-191400-
SOUTHWEST WISCONSIN

CITY           SKY/WX    TMP DP  RH WIND       PRES   REMARKS
LA CROSSE      CLOUDY    53  36  52 E8        29.79S
SPARTA         CLOUDY    51  32  48 E3        29.82F
VIROQUA        CLOUDY    52  33  48 SE10      29.80F
BOSCOBEL       CLOUDY    56  35  45 CALM      29.81F
PRAIRIE DU CHI LGT RAIN  53  38  57 E6        29.79F
PLATTEVILLE    CLOUDY    53  36  52 E12       29.80S
$$

WIZ056-057-062-063-064-067-068-191400-
SOUTH CENTRAL WISCONSIN

CITY           SKY/WX    TMP DP  RH WIND       PRES   REMARKS
REEDSBURG      PTSUNNY   53  32  45 E5        29.83F
BARABOO/DELLS  CLOUDY    51  29  42 E9        29.82F
LONE ROCK      PTSUNNY   55  33  43 E15       29.81F
MINERAL POINT  MOSUNNY   54  32  43 SE7       29.80F
MADISON        PTSUNNY   51  30  44 SE14      29.84F
MIDDLETON      PTSUNNY   54  31  41 E10       29.85S
WATERTOWN      MOSUNNY   49  32  52 E10       29.86F
MONROE         CLOUDY    52  36  54 E8        29.81F
JANESVILLE     SUNNY     54  32  43 E12       29.84F
$$

WIZ051-052-058>065-066-070>072-191400-
SOUTHEAST WISCONSIN

CITY           SKY/WX    TMP DP  RH WIND       PRES   REMARKS
MILWAUKEE      PTSUNNY   46  33  60 E9        29.90F
WAUKESHA       PTSUNNY   46  30  53 E12       29.90F
MILWAUKEE/TIMM SUNNY     46  28  49 E7        29.91F
RACINE         MOSUNNY   47  32  56 E12       29.91F
BURLINGTON     PTSUNNY   49  32  52 E10       29.87F
KENOSHA        MOSUNNY   50  33  52 E10       29.88F
FOND DU LAC    MOSUNNY   49  30  48 SE18G26   29.88F
SHEBOYGAN      CLOUDY    46  31  55 SE8       29.94F
WEST BEND      MOSUNNY   45  30  57 E13       29.91F
JUNEAU         SUNNY     47  31  53 E15       29.88F
$$

LSZ147-162-191400-
LAKE SUPERIOR

STATION/POSITION TIME  TEMP    WIND        PRES    WAVE
                       AIR SEA DIR/SP/G            HT/PER
                 (UTC) (F)     (DEG/KT/KT) (MB)    (FT/S)
DEVILS ISLAND    1300   39     100/ 17/ 19 1010.7F
PORT WING        1240   38      40/ 11/ 13 1009.8F
SAXON HARBOR     1300   44        CALM     1009.5F
$$

LMZ867-665-643>646-191400-
LAKE MICHIGAN

STATION/POSITION TIME  TEMP    WIND        PRES    WAVE
                       AIR SEA DIR/SP/G            HT/PER
                 (UTC) (F)     (DEG/KT/KT) (MB)    (FT/S)
CHAMBERS ISLAND  1200   42      60/  5/  9 1016.3S
NORTHPORT PIER   1220   40     100/  9/ 11 1016.6S
SISTER BAY       1232   44     110/ 13/ 17   N/A
KEWAUNEE LAKESHO 1200   41      70/  2/  5 1014.2F
SHEBOYGAN LAKESH 1300   45     180/  5/  7 1014.3F
PORT WASHINGTON  1200   44      80/  5/  8 1014.9F
MILWAUKEE LAKESH 1300   42      50/  8/  9   N/A
KENOSHA   LAKESH 1300   43      40/  6/  8 1012.2F
$$

TC  - TEMPERATURE IN CELSIUS
VSB - VISIBILITY IN STATUTE MILES
WCI - WIND CHILL INDEX
HX  - HEAT INDEX




USA.gov is the U.S. government's official web portal to all federal, state and local government web resources and services.